User: anonymous   Login
Location: Bandys
(35.4750°N, 81.0830°W)
Time: 19:48:39
(UTC-05:00)
Language:

DELTA 2 R/B (1) - Orbit

View from above orbital plane
View from above orbital plane
View from above satellite
View from above satellite

Ground track
Ground track

The orbit data is extracted from the following two-line orbital elements,

1 27665U 03005C   16339.63440005 -.00000030  00000-0  21955-4 0  9998
2 27665  39.5773  20.8773 0008317  82.1686  68.0387 14.28428285723108
Epoch (UTC): 04 December 2016 15:13:32
Eccentricity: 0.0008317
inclination: 39.5773°
perigee height: 791 km
apogee height: 803 km
right ascension of ascending node: 20.8773°
argument of perigee: 82.1686°
revolutions per day: 14.28428285
mean anomaly at epoch: 68.0387°
orbit number at epoch: 72310

The dashed part of the orbit path shows where the satellite is in the earth's shadow,  

DLR